Terminal Aerodrome Forecast
Issued by NWS St Louis, MO

Home | Current Version | Previous Version | Text Only | Print | Product List | Glossary On
Versions: 1 2 3 4 5 6 7 8 9 10 11 12 13 14 15 16 17 18 19 20 21 22 23 24 25 26
000
FTUS43 KLSX 272000 AAA
TAFSTL
TAF AMD
KSTL 272054Z 2721/2824 31014G22KT P6SM FEW060 SCT250
     FM280200 31010KT P6SM SCT250
     FM280800 31008KT P6SM SCT025
     FM281400 33010G18KT P6SM SKC=

USA.gov is the U.S. government's official web portal to all federal, state and local government web resources and services.